| time (UTC) | temp F | wind direction | speed MPH | gust MPH | rain 1hr in | rain 24hr in | rain mn in | humidity % | barometer mb |
| 20260831094601 | 62 | 41 | 2.0 | 4.0 | 0.00 | 0.00 | 0.00 | 62 | 1028.8 |
| 20260831093058 | 59 | 88 | 1.0 | 4.0 | 0.00 | 0.00 | 0.00 | 65 | 1029.4 |
| 20260831091553 | 59 | 217 | 1.0 | 4.0 | 0.00 | 0.00 | 0.00 | 67 | 1029.7 |
| 20260831090047 | 58 | 0 | 0.0 | 2.0 | 0.00 | 0.00 | 0.00 | 67 | 1030.0 |
| 20260831084554 | 57 | 139 | 0.0 | 4.0 | 0.00 | 0.00 | 0.00 | 71 | 1030.2 |
| 20260831083058 | 56 | 193 | 2.0 | 4.0 | 0.00 | 0.00 | 0.00 | 72 | 1030.4 |
| 20260831081557 | 56 | 211 | 1.0 | 3.0 | 0.00 | 0.00 | 0.00 | 72 | 1030.6 |
| 20260831080049 | 56 | 182 | 2.0 | 7.0 | 0.00 | 0.00 | 0.00 | 74 | 1030.8 |
| 20260831074559 | 54 | 200 | 2.0 | 9.0 | 0.00 | 0.00 | 0.00 | 76 | 1030.9 |
| 20260831073051 | 54 | 189 | 3.0 | 7.0 | 0.00 | 0.00 | 0.00 | 77 | 1030.8 |
| 20260831071552 | 54 | 157 | 3.0 | 4.0 | 0.00 | 0.00 | 0.00 | 76 | 1030.5 |
| 20260831070125 | 52 | 244 | 1.0 | 6.0 | 0.00 | 0.00 | 0.00 | 78 | 1030.3 |
| 20260831064604 | 51 | 235 | 2.0 | 6.0 | 0.00 | 0.00 | 0.00 | 79 | 1030.4 |
| 20260831063102 | 50 | 248 | 2.0 | 6.0 | 0.00 | 0.00 | 0.00 | 80 | 1030.4 |
| 20260831061606 | 50 | 213 | 2.0 | 7.0 | 0.00 | 0.00 | 0.00 | 81 | 1030.3 |
| 20260831060109 | 50 | 0 | 1.0 | 4.0 | 0.00 | 0.00 | 0.00 | 81 | 1030.1 |
| 20260831054554 | 49 | 265 | 2.0 | 4.0 | 0.00 | 0.00 | 0.00 | 82 | 1030.1 |
| 20260831053106 | 49 | 13 | 3.0 | 4.0 | 0.00 | 0.00 | 0.00 | 83 | 1029.8 |
| 20260831051603 | 48 | 18 | 2.0 | 3.0 | 0.00 | 0.00 | 0.00 | 84 | 1029.5 |
| 20260831050100 | 48 | 9 | 0.0 | 2.0 | 0.00 | 0.00 | 0.00 | 84 | 1029.8 |
| 20260831044554 | 48 | 0 | 0.0 | 2.0 | 0.00 | 0.00 | 0.00 | 84 | 1029.8 |
| 20260831043048 | 48 | 58 | 0.0 | 2.0 | 0.00 | 0.00 | 0.00 | 84 | 1029.6 |
| 20260831041544 | 48 | 225 | 0.0 | 2.0 | 0.00 | 0.00 | 0.00 | 85 | 1029.5 |
| 20260831040058 | 48 | 199 | 1.0 | 4.0 | 0.00 | 0.00 | 0.00 | 84 | 1029.4 |
| 20260831034558 | 48 | 211 | 2.0 | 5.0 | 0.00 | 0.00 | 0.00 | 83 | 1029.3 |
| 20260831033050 | 48 | 186 | 2.0 | 6.0 | 0.00 | 0.00 | 0.00 | 82 | 1028.9 |
| 20260831031558 | 48 | 197 | 2.0 | 4.0 | 0.00 | 0.00 | 0.00 | 82 | 1028.7 |
| 20260831030051 | 48 | 181 | 2.0 | 5.0 | 0.00 | 0.00 | 0.00 | 81 | 1028.2 |
| 20260831024559 | 49 | 202 | 2.0 | 5.0 | 0.00 | 0.00 | 0.00 | 79 | 1028.3 |
| 20260831023050 | 49 | 198 | 1.0 | 4.0 | 0.00 | 0.00 | 0.00 | 80 | 1028.3 |
| 20260831021557 | 49 | 198 | 1.0 | 4.0 | 0.00 | 0.00 | 0.00 | 79 | 1028.2 |
| 20260831020050 | 49 | 185 | 1.0 | 3.0 | 0.00 | 0.00 | 0.00 | 78 | 1028.1 |
| 20260831014557 | 50 | 0 | 1.0 | 3.0 | 0.00 | 0.00 | 0.00 | 78 | 1028.2 |
| 20260831013056 | 50 | 192 | 2.0 | 3.0 | 0.00 | 0.00 | 0.00 | 79 | 1028.2 |
| 20260831011551 | 50 | 190 | 1.0 | 2.0 | 0.00 | 0.00 | 0.00 | 78 | 1028.6 |
| 20260831010130 | 50 | 205 | 0.0 | 2.0 | 0.00 | 0.00 | 0.00 | 78 | 1028.6 |
| 20260831004558 | 50 | 173 | 1.0 | 4.0 | 0.00 | 0.00 | 0.00 | 78 | 1028.8 |
| 20260831003055 | 51 | 193 | 1.0 | 4.0 | 0.00 | 0.00 | 0.00 | 79 | 1029.0 |
| 20260831001607 | 51 | 202 | 3.0 | 4.0 | 0.00 | 0.00 | 0.00 | 78 | 1029.1 |
| 20260831000054 | 51 | 186 | 1.0 | 4.0 | 0.00 | 0.00 | 0.00 | 78 | 1029.3 |
| 20260830234600 | 51 | 181 | 1.0 | 4.0 | 0.00 | 0.00 | 0.00 | 78 | 1029.3 |
| 20260830233045 | 51 | 210 | 0.0 | 2.0 | 0.00 | 0.00 | 0.00 | 79 | 1029.3 |
| 20260830231555 | 51 | 210 | 0.0 | 2.0 | 0.00 | 0.00 | 0.00 | 78 | 1029.2 |
| 20260830230055 | 51 | 0 | 0.0 | 0.0 | 0.00 | 0.00 | 0.00 | 77 | 1029.1 |
| 20260830224606 | 52 | 0 | 0.0 | 0.0 | 0.00 | 0.00 | 0.00 | 77 | 1028.9 |
| 20260830223055 | 52 | 210 | 0.0 | 2.0 | 0.00 | 0.00 | 0.00 | 76 | 1029.1 |
| 20260830221555 | 52 | 210 | 0.0 | 2.0 | 0.00 | 0.00 | 0.00 | 76 | 1029.3 |
| 20260830220124 | 52 | 224 | 1.0 | 2.0 | 0.00 | 0.00 | 0.00 | 75 | 1029.5 |
| 20260830214602 | 52 | 192 | 0.0 | 2.0 | 0.00 | 0.00 | 0.00 | 75 | 1029.5 |
| 20260830213102 | 52 | 0 | 0.0 | 3.0 | 0.00 | 0.00 | 0.00 | 75 | 1029.7 |
| 20260830211549 | 53 | 240 | 1.0 | 5.0 | 0.00 | 0.00 | 0.00 | 75 | 1029.9 |
| 20260830204555 | 53 | 223 | 2.0 | 6.0 | 0.00 | 0.00 | 0.00 | 75 | 1030.1 |
| 20260830203105 | 53 | 219 | 3.0 | 5.0 | 0.00 | 0.00 | 0.00 | 76 | 1030.2 |
| 20260830201551 | 53 | 196 | 2.0 | 7.0 | 0.00 | 0.00 | 0.00 | 77 | 1030.3 |
| 20260830200047 | 53 | 216 | 2.0 | 5.0 | 0.00 | 0.00 | 0.00 | 76 | 1030.0 |
| 20260830194557 | 53 | 223 | 2.0 | 4.0 | 0.00 | 0.00 | 0.00 | 76 | 1030.0 |
| 20260830193050 | 53 | 217 | 2.0 | 5.0 | 0.00 | 0.00 | 0.00 | 76 | 1030.1 |
| 20260830191600 | 53 | 202 | 2.0 | 4.0 | 0.00 | 0.00 | 0.00 | 76 | 1029.9 |
| 20260830190058 | 53 | 233 | 1.0 | 4.0 | 0.00 | 0.00 | 0.00 | 78 | 1029.6 |
| 20260830184553 | 53 | 223 | 2.0 | 4.0 | 0.00 | 0.00 | 0.00 | 78 | 1029.6 |
| 20260830183054 | 53 | 228 | 2.0 | 5.0 | 0.00 | 0.00 | 0.00 | 78 | 1029.5 |
| 20260830181552 | 53 | 227 | 2.0 | 5.0 | 0.00 | 0.00 | 0.00 | 79 | 1029.4 |
| 20260830180108 | 53 | 199 | 3.0 | 5.0 | 0.00 | 0.00 | 0.00 | 79 | 1029.4 |
| 20260830174554 | 53 | 225 | 2.0 | 6.0 | 0.00 | 0.00 | 0.00 | 80 | 1029.4 |
| 20260830173126 | 53 | 202 | 2.0 | 5.0 | 0.00 | 0.00 | 0.00 | 79 | 1029.3 |
| 20260830171603 | 53 | 257 | 2.0 | 8.0 | 0.00 | 0.00 | 0.00 | 78 | 1029.2 |
| 20260830170052 | 53 | 154 | 3.0 | 7.0 | 0.00 | 0.00 | 0.00 | 78 | 1029.1 |
| 20260830164547 | 53 | 216 | 5.0 | 8.0 | 0.00 | 0.00 | 0.00 | 77 | 1028.8 |
| 20260830163100 | 54 | 244 | 3.0 | 6.0 | 0.00 | 0.00 | 0.00 | 76 | 1028.7 |
| 20260830161603 | 54 | 251 | 2.0 | 5.0 | 0.00 | 0.00 | 0.00 | 74 | 1028.4 |
| 20260830154556 | 55 | 201 | 4.0 | 7.0 | 0.00 | 0.00 | 0.00 | 73 | 1027.9 |
| 20260830153052 | 55 | 209 | 3.0 | 8.0 | 0.00 | 0.00 | 0.00 | 73 | 1027.8 |
| 20260830151549 | 55 | 177 | 2.0 | 9.0 | 0.00 | 0.00 | 0.00 | 72 | 1027.6 |
| 20260830150050 | 56 | 236 | 3.0 | 6.0 | 0.00 | 0.00 | 0.00 | 71 | 1027.3 |
| 20260830144557 | 56 | 204 | 3.0 | 8.0 | 0.00 | 0.00 | 0.00 | 71 | 1027.1 |
| 20260830143053 | 56 | 216 | 3.0 | 6.0 | 0.00 | 0.00 | 0.00 | 70 | 1026.8 |
| 20260830141546 | 56 | 226 | 3.0 | 6.0 | 0.00 | 0.00 | 0.00 | 70 | 1026.7 |
| 20260830140056 | 56 | 215 | 2.0 | 7.0 | 0.00 | 0.00 | 0.00 | 70 | 1026.6 |
| 20260830134603 | 56 | 192 | 1.0 | 6.0 | 0.00 | 0.00 | 0.00 | 69 | 1026.5 |
| 20260830133050 | 56 | 323 | 2.0 | 6.0 | 0.00 | 0.00 | 0.00 | 70 | 1026.6 |
| 20260830131610 | 57 | 229 | 2.0 | 5.0 | 0.00 | 0.00 | 0.00 | 69 | 1026.6 |
| 20260830130101 | 57 | 225 | 2.0 | 6.0 | 0.00 | 0.00 | 0.00 | 69 | 1026.6 |
| 20260830124553 | 57 | 196 | 2.0 | 6.0 | 0.00 | 0.00 | 0.00 | 68 | 1026.5 |
| 20260830123052 | 56 | 360 | 2.0 | 7.0 | 0.00 | 0.00 | 0.00 | 69 | 1026.7 |
| 20260830121559 | 56 | 250 | 1.0 | 7.0 | 0.00 | 0.00 | 0.00 | 70 | 1026.8 |
| 20260830114605 | 55 | 216 | 3.0 | 6.0 | 0.00 | 0.00 | 0.00 | 72 | 1027.1 |
| 20260830113050 | 55 | 259 | 1.0 | 6.0 | 0.00 | 0.00 | 0.00 | 72 | 1027.2 |
| 20260830111600 | 54 | 278 | 3.0 | 8.0 | 0.00 | 0.00 | 0.00 | 72 | 1027.6 |
| 20260830110129 | 54 | 267 | 2.0 | 8.0 | 0.00 | 0.00 | 0.00 | 73 | 1028.1 |
| 20260830104600 | 54 | 254 | 3.0 | 9.0 | 0.00 | 0.00 | 0.00 | 75 | 1028.1 |
| 20260830103058 | 53 | 234 | 2.0 | 6.0 | 0.00 | 0.00 | 0.00 | 77 | 1028.7 |
| 20260830101552 | 53 | 265 | 3.0 | 7.0 | 0.00 | 0.00 | 0.00 | 78 | 1028.7 |
| 20260830100055 | 52 | 223 | 4.0 | 10.0 | 0.00 | 0.00 | 0.00 | 78 | 1029.0 |